Hatteras, NC

4:39 PM EST on January 21, 2018 (GMT -0500)
Mitchell

Weather History for KHSE - February, 2012

Change the Weather History Date:

Sunday, February 12, 2012

  Actual Average Record
Temperature  
Mean Temperature 35 °F 46 °F  
Max Temperature 40 °F 53 °F 72 °F (1932)
Min Temperature 29 °F 40 °F 22 °F (1978)
Degree Days  
Heating Degree Days 30 19  
Month to date heating degree days 189 228  
Since 1 July heating degree days 1200 1641  
Cooling Degree Days 0 0  
Month to date cooling degree days 0 0  
Year to date cooling degree days 0 0  
Moisture  
Dew Point 14 °F    
Average Humidity 46    
Maximum Humidity 58    
Minimum Humidity 34    
Precipitation  
Precipitation 0.00 in 0.13 in 1.96 in (1985)
Month to date precipitation 1.73 1.74  
Year to date precipitation 6.76 6.98  
Snow  
Snow 0.00 in - - ()
Month to date snowfall T  
Since 1 July snowfall T  
Snow Depth 0.00 in    
Sea Level Pressure  
Sea Level Pressure 30.07 in    
Wind  
Wind Speed 14 mph (NW)    
Max Wind Speed 26 mph    
Max Gust Speed 45 mph    
Visibility 10 miles    
Events      
T = Trace of Precipitation, MM = Missing Value Source: NWS Daily Summary

Daily Weather History Graph

Daily Weather History Graph

Search for Another Location

Airport or City:

Trip Planner

Search our weather history database for the weather conditions in past years. The results will help you decide how hot, cold, wet, or windy it might be!

Date:

Astronomy

Feb. 12, 2012 Rise Set
Actual Time 6:52 AM EST 5:41 PM EST
Civil Twilight 6:26 AM EST 6:07 PM EST
Nautical Twilight 5:56 AM EST 6:37 PM EST
Astronomical Twilight 5:26 AM EST 7:07 PM EST
Moon 11:20 PM EST (2/12) 9:24 AM EST (2/12)
Length of Visible Light 11h 41m
Length of Day
10h 49m
Waning Gibbous, 72% of the Moon is Illuminated
Feb 12
Waning Gibbous
Feb 14
Last Quarter
Feb 21
New
Feb 29
First Quarter
Mar 8
Full

Hourly Weather History & Observations

Time (EST) Temp. Windchill Dew Point Humidity Pressure Visibility Wind Dir Wind Speed Gust Speed Precip Events Conditions
12:51 AM 32.0 °F 20.1 °F 15.1 °F 50% 29.85 in 10.0 mi NW 19.6 mph 35.7 mph N/A   Clear
1:51 AM 30.9 °F 18.1 °F 12.9 °F 47% 29.88 in 10.0 mi NW 21.9 mph 40.3 mph N/A   Partly Cloudy
2:51 AM 30.0 °F 18.7 °F 12.9 °F 49% 29.90 in 10.0 mi NW 16.1 mph 32.2 mph N/A   Mostly Cloudy
3:51 AM 30.0 °F 16.3 °F 12.9 °F 49% 29.92 in 10.0 mi NW 24.2 mph 36.8 mph N/A   Overcast
4:51 AM 30.0 °F 17.2 °F 14.0 °F 51% 29.96 in 10.0 mi NW 20.7 mph 40.3 mph N/A   Overcast
5:51 AM 30.0 °F 17.9 °F 15.1 °F 54% 29.99 in 10.0 mi NW 18.4 mph 34.5 mph N/A   Overcast
6:51 AM 28.9 °F 16.5 °F 15.1 °F 56% 30.03 in 10.0 mi NW 18.4 mph 36.8 mph N/A   Overcast
7:00 AM - - - N/A% - - North - - N/A   Unknown
7:51 AM 30.0 °F 18.7 °F 16.0 °F 56% 30.06 in 10.0 mi NNW 16.1 mph 34.5 mph N/A   Overcast
8:51 AM 30.9 °F 21.2 °F 15.1 °F 52% 30.08 in 10.0 mi NNW 12.7 mph 26.5 mph N/A   Scattered Clouds
9:51 AM 32.0 °F 22.1 °F 15.1 °F 50% 30.11 in 10.0 mi NNW 13.8 mph 27.6 mph N/A   Clear
10:51 AM 33.1 °F 23.4 °F 15.1 °F 48% 30.14 in 10.0 mi NW 13.8 mph 29.9 mph N/A   Partly Cloudy
11:51 AM 35.1 °F 26.4 °F 15.1 °F 44% 30.14 in 10.0 mi NNW 12.7 mph 23.0 mph N/A   Clear
12:51 PM 36.0 °F 27.5 °F 14.0 °F 41% 30.12 in 10.0 mi NW 12.7 mph 21.9 mph N/A   Clear
1:51 PM 37.0 °F 28.9 °F 12.0 °F 36% 30.10 in 10.0 mi NW 12.7 mph 23.0 mph N/A   Clear
2:51 PM 37.9 °F 30.0 °F 12.0 °F 35% 30.09 in 10.0 mi NW 12.7 mph 19.6 mph N/A   Clear
3:51 PM 37.9 °F 30.5 °F 12.9 °F 36% 30.09 in 10.0 mi NW 11.5 mph 23.0 mph N/A   Clear
4:51 PM 37.9 °F 30.5 °F 14.0 °F 38% 30.09 in 10.0 mi WNW 11.5 mph 21.9 mph N/A   Clear
5:51 PM 37.0 °F 29.8 °F 14.0 °F 39% 30.13 in 10.0 mi NW 10.4 mph 21.9 mph N/A   Clear
6:51 PM 37.9 °F 30.9 °F 12.9 °F 36% 30.15 in 10.0 mi WNW 10.4 mph 19.6 mph N/A   Clear
7:51 PM 37.9 °F 30.9 °F 15.1 °F 39% 30.16 in 10.0 mi WNW 10.4 mph 18.4 mph N/A   Clear
8:51 PM 39.0 °F 31.8 °F 15.1 °F 38% 30.17 in 10.0 mi WNW 11.5 mph 18.4 mph N/A   Clear
9:51 PM 39.0 °F 32.3 °F 15.1 °F 38% 30.19 in 10.0 mi NW 10.4 mph 17.3 mph N/A   Clear
10:51 PM 39.0 °F 31.8 °F 14.0 °F 36% 30.19 in 10.0 mi WNW 11.5 mph 19.6 mph N/A   Clear
11:51 PM 39.9 °F 32.9 °F 15.1 °F 36% 30.19 in 10.0 mi WNW 11.5 mph 18.4 mph N/A   Clear